Flight Information

DEPARTURE
MEDFORD, OR
Elevation:
1335
Runways:
14/32 - 8800x150 - ASPH-G
ATIS:
127.25
Ground:
121.8
Tower:
MEDFORD TOWER 119.4
DESTINATION
,
Elevation:
TPA:
1000 (est.)


6818.1 NM66° True-18° Var48° HDG

Flight Plan:
(click to file on line)

1. Type
2. Aircraft Identification
3. Aircraft Type / Special Equipment
4. True Airspeed
kts
5. Departure Airport
(ICAO code)
6. Arriving Airport
(ICAO code)
7. Cruising Altitude
ft
8. Alternate Airport
(ICAO code)
9. Route of Flight
10. Remarks


00:00:00 Departure ATIS: Destination ATIS:

Clearance Limit:
Route:
Altitude: Expect in minutes
Frequency:
Transponder: (7500 Hijack / 7600 Lost Comms / 7700 Emergency)


KMFR 091853Z 03003KT 10SM FEW002 BKN110 01/01 A3001 RMK AO2 SLP170 T00110011
Time: 2022-12-09T18:53:00Z
1670647577
Winds: 30 @ 3 kts
Visibility: 10.0 sm
Clouds (AGL): FEW 200
BKN 11000
Temperature: 1.1 C
Dew Point: 1.1 C
Pressure: 30.008858 in Hgbr


Notes:

Data extracted from FAA Digital Chart Supplement. Effective: 0901Z Thursday, 27 JAN 2022 to 0900z Thursday, 24 MAR 2022
Current ATIS data is provided courtisy of PilotEdge.